Regional Weather Roundup
Issued by NWS

Home | Current Version | Previous Version | Text Only | Print | Product List | Glossary Off
Versions: 1 2 3 4 5 6 7 8 9 10 11 12 13 14 15 16 17 18 19 20 21 22 23 24 25 26 27 28 29 30 31 32 33 34 35 36 37 38 39 40 41 42 43 44 45 46 47 48 49 50

000
ASUS45 KPSR 210510
RWRAZ

ARIZONA REGIONAL HOURLY WEATHER ROUNDUP
NATIONAL WEATHER SERVICE PHOENIX AZ
1000 PM MST SUN APR 20 2014

NOTE: FAIR INDICATES FEW OR NO CLOUDS BELOW 12,000 FEET WITH NO
SIGNIFICANT WEATHER AND/OR OBSTRUCTIONS TO VISIBILITY.

AZZ001>003-036-210600-
NORTHWEST ARIZONA

CITY           SKY/WX    TMP DP  RH WIND       PRES   REMARKS
BULLHEAD CITY  CLEAR     84  37  18 CALM      29.94R
KINGMAN        CLEAR     70  32  24 S13       30.09R
$$

AZZ004>008-015-016-018-210600-
NORTH CENTRAL ARIZONA

CITY           SKY/WX    TMP DP  RH WIND       PRES   REMARKS
GRAND CANYON   CLEAR     41  30  65 CALM      30.25S
WILLIAMS       MOCLDY    50  32  50 SE6       30.33S
PRESCOTT       CLEAR     64  34  32 SW5       30.19R
FLAGSTAFF      CLEAR     43  35  73 CALM      30.29R
PAYSON         CLEAR     59  41  51 NW3       30.22R
PAGE           PTCLDY    68  35  29 SW5       30.10R
$$

AZZ009>014-017-210600-
NORTHEAST ARIZONA

CITY           SKY/WX    TMP DP  RH WIND       PRES   REMARKS
WINSLOW        PTCLDY    61  36  39 SW13      30.15R
SAINT JOHNS    CLEAR     58  34  40 SW13      30.18R
WINDOW ROCK    MOCLDY    49  31  49 CALM      30.23R
SHOW LOW       CLEAR     50  34  53 S8        30.27R
$$

AZZ023-210600-
GREATER PHOENIX AREA

CITY           SKY/WX    TMP DP  RH WIND       PRES   REMARKS
PHOENIX        CLEAR     83  36  18 CALM      29.96R
BUCKEYE          N/A     73  37  27 W5        29.97S
LUKE AFB       NOT AVBL
DEER VALLEY    CLEAR     76  32  20 CALM      29.98R
SCOTTSDALE     CLEAR     80  38  22 N3        30.00R
MESA-GATEWAY   CLEAR     72  34  25 CALM      30.00S
$$

AZZ027-028-210600-
SOUTHWEST MARICOPA COUNTY AND PINAL COUNTY

CITY           SKY/WX    TMP DP  RH WIND       PRES   REMARKS
CASA GRANDE    CLEAR     70  30  23 CALM      29.99S
$$

AZZ503-504-507>509-210600-
SOUTHEAST ARIZONA

CITY           SKY/WX    TMP DP  RH WIND       PRES   REMARKS
TUCSON         CLEAR     76  35  22 NW8       30.06R
DAVIS-MONTHAN  CLEAR     73  37  27 NW6       30.05S
NOGALES        CLEAR     62  31  31 CALM      30.11R
SIERRA VISTA   CLEAR     65  31  28 MISG      30.16R
DOUGLAS        CLEAR     62  31  31 NE6       30.12S
SAFFORD        CLEAR     67  32  27 E3        30.05R
$$

AZZ020-021-025-026-031-210600-
SOUTHWEST ARIZONA

CITY           SKY/WX    TMP DP  RH WIND       PRES   REMARKS
YUMA           CLEAR     78  42  27 S3        29.95R
$$

CAZ031-033-041-043-047-048-061-210600-
SOUTHERN CALIFORNIA

CITY           SKY/WX    TMP DP  RH WIND       PRES   REMARKS
DOWNTOWN L.A.  CLEAR     62  56  80 CALM      30.04R
L.A. AIRPORT   PTCLDY    61  56  83 SW3       30.05R
SAN DIEGO      MOCLDY    62  56  80 NW3       30.08S
BURBANK        CLEAR     65  56  72 SE5       30.03R
ONTARIO        CLEAR     68  53  58 SW3       30.05R
RIVERSIDE      CLEAR     68  54  60 NE3       30.05R
PALM SPRINGS   CLEAR     83  48  29 N3        29.97R
EL CENTRO NAS  CLEAR     75  48  38 SE7       29.92R
IMPERIAL       CLEAR     81  41  24 S6        29.91R
BLYTHE         CLEAR     83  39  21 SW7       29.93R
NEEDLES        CLEAR     85  33  15 SW8       29.94R
$$

NVZ020-UTZ003-210600-
SOUTHERN NEVADA-UTAH

CITY           SKY/WX    TMP DP  RH WIND       PRES   REMARKS
LAS VEGAS      CLEAR     82  29  14 SW9       29.94R
SALT LAKE CITY MOCLDY    57  25  29 SE5       30.18R
$$

NMZ009-TXZ055-210600-
NEW MEXICO-WEST TEXAS

CITY           SKY/WX    TMP DP  RH WIND       PRES   REMARKS
ALBUQUERQUE    MOCLDY    64  36  35 S10       30.12R
EL PASO        CLEAR     70  39  32 NW5       30.08S
$$


........................KEY........................
SKY/WX - SKY CONDITION/WEATHER
TMP    - TEMPERATURE IN FAHRENHEIT
DP     - DEW POINT IN FAHRENHEIT
RH     - RELATIVE HUMIDITY IN PERCENT
WIND   - DIRECTION AND SPEED IN MILES PER HOUR (MPH)
VRB    - VARIABLE WIND DIRECTION
PRES   - MEAN SEA LEVEL PRESSURE IN INCHES OF MERCURY
         F - FALLING PRESSURE   R - RISING PRESSURE
         S - STEADY PRESSURE
VSB    - VISIBILITY IN MILES
HX     - HEAT INDEX IN FAHRENHEIT
WCI    - WIND CHILL INDEX IN FAHRENHEIT
TC     - TEMPERATURE IN CELSIUS WHICH IS ALSO KNOWN AS
         TEMPERATURE IN CENTIGRADE
AFB    - AIR FORCE BASE
         LUKE AFB IS LUKE AIR FORCE BASE
         DAVIS-MONTHAN IS DAVIS-MONTHAN AIR FORCE BASE
NAS    - NAVAL AIR STATION
         EL CENTRO NAS IS EL CENTRO NAVAL AIR STATION
N/A    - NOT AVAILABLE



USA.gov is the U.S. government's official web portal to all federal, state and local government web resources and services.